Terug naar catalogus

SL-6 R/B(2)

ActiefHEO
NORAD 11076·ROCKET BODY·🇷🇺 Russia

Gelanceerd Sep 6, 1978 vanaf Plesetsk Cosmodrome

Loading…

Volgende Passages (komende 24 uur)

TLE

VersSource: Space-Track

Epoch: Sep 13, 2026, 20:13 UTC

1 11076U 78083D   26256.84277032 -.00000748  00000-0  00000-0 0  9995
2 11076  65.8425  74.9131 6706486  20.6738 356.9320  1.99118442241683

Volg SL-6 R/B(2) in realtime met AllMySat

Download on the App Store